Date String (YYYY-MM-DD hh:mm:ss) UTC,Instrument flags,Ambient pressure (hPa),Sample flow (lpm),Bypass flow (lpm),Sample temperature (°C),Ambient temperature (°C),ASC tube jacket temperature (°C),LED temperature (°C),Box temperature (°C),Sample RH (%),Span deviation,Mass concentration (μg/m³),Mass concentration (μg/m³),Mass concentration (μg/m³)
DateTimeUTC,F1_M11,P_M11,Q1_M11,Q2_M11,T1_M11,T2_M11,T3_M11,T4_M11,T5_M11,U1_M11,ZSPAN_M11,X0_M11,X2_M11,X1_M11
2022-08-04 18:00:00,,0829.1,5.00,0.00,29.4,27.5,00.0,38.1,31.1,26.2,0002.1,0019.62,0009.65,0007.76
2022-08-04 18:01:00,,0829.3,5.00,0.00,29.4,27.7,00.0,38.1,31.1,26.8,0001.7,0018.91,0009.57,0007.67
2022-08-04 18:02:00,,0829.4,4.99,0.00,29.4,27.9,00.0,38.2,31.2,27.6,0001.6,0019.03,0009.56,0007.63
2022-08-04 18:03:00,,0829.3,5.02,0.00,29.5,28.0,00.0,38.2,31.3,27.7,0001.7,0018.75,0009.50,0007.61
2022-08-04 18:04:00,,0829.3,4.99,0.00,29.5,27.8,00.0,38.2,31.3,27.8,0001.4,0018.40,0009.45,0007.57
2022-08-04 18:05:00,,0829.3,5.01,0.00,29.4,27.3,00.0,38.1,31.2,28.6,0001.2,0018.75,0009.42,0007.53
2022-08-04 18:06:00,,0829.2,4.99,0.00,29.4,27.1,00.0,38.1,31.1,28.5,0001.0,0019.23,0009.40,0007.49
2022-08-04 18:07:00,,0829.0,5.01,0.00,29.4,27.1,00.0,38.1,31.0,28.8,0000.5,0019.23,0009.43,0007.47
2022-08-04 18:08:00,,0828.9,4.99,0.00,29.3,27.3,00.0,38.1,31.0,28.6,0000.8,0019.13,0009.39,0007.50
2022-08-04 18:09:00,,0829.1,4.99,0.00,29.3,27.5,00.0,38.1,31.1,27.3,0000.8,0019.34,0009.45,0007.46
2022-08-04 18:10:00,,0829.1,5.00,0.00,29.3,27.7,00.0,38.1,31.2,26.8,0000.9,0019.52,0009.43,0007.43
2022-08-04 18:11:00,,0828.8,4.99,0.00,29.4,27.9,00.0,38.1,31.2,26.3,0000.7,0019.30,0009.48,0007.44
2022-08-04 18:12:00,,0828.7,5.00,0.00,29.4,28.1,00.0,38.1,31.3,25.8,0001.1,0019.57,0009.47,0007.41
2022-08-04 18:13:00,,0828.7,5.00,0.00,29.5,28.2,00.0,38.1,31.4,25.7,0001.5,0019.80,0009.47,0007.38
2022-08-04 18:14:00,,0828.8,5.00,0.00,29.4,27.7,00.0,38.1,31.2,25.7,0001.7,0020.05,0009.51,0007.35
2022-08-04 18:15:00,,0828.7,5.00,0.00,29.4,27.2,00.0,38.1,31.1,25.7,0001.4,0020.06,0009.52,0007.33
2022-08-04 18:16:00,,0829.1,4.99,0.00,29.4,27.2,00.0,38.1,31.1,25.3,0001.3,0018.80,0009.53,0007.30
2022-08-04 18:17:00,,0829.1,5.00,0.00,29.3,27.3,00.0,38.1,31.0,24.6,0001.4,0018.20,0009.47,0007.25
2022-08-04 18:18:00,,0829.1,4.99,0.00,29.3,27.5,00.0,38.1,31.1,23.6,0001.8,0018.22,0009.36,0007.18
2022-08-04 18:19:00,,0829.1,5.01,0.00,29.3,27.7,00.0,38.1,31.1,25.4,0001.8,0018.76,0009.32,0007.11
2022-08-04 18:20:00,,0828.8,4.99,0.00,29.4,27.9,00.0,38.1,31.2,27.5,0001.9,0018.81,0009.31,0007.11
2022-08-04 18:21:00,,0828.9,5.00,0.00,29.4,28.0,00.0,38.1,31.3,26.8,0001.8,0018.88,0009.44,0007.14
2022-08-04 18:22:00,,0828.8,5.00,0.00,29.4,27.9,00.0,38.1,31.3,26.0,0002.1,0018.54,0009.39,0007.12
2022-08-04 18:23:00,,0828.9,4.99,0.00,29.4,27.4,00.0,38.1,31.2,26.7,0002.2,0018.48,0009.39,0007.13
2022-08-04 18:24:00,,0828.9,5.01,0.00,29.4,27.1,00.0,38.0,31.1,27.2,0001.9,0019.55,0009.36,0007.15
2022-08-04 18:25:00,,0829.0,4.99,0.00,29.3,27.2,00.0,38.0,31.1,26.8,0001.6,0019.76,0009.29,0007.16
2022-08-04 18:26:00,,0828.9,5.01,0.00,29.3,27.4,00.0,38.0,31.0,27.9,0001.7,0019.66,0009.24,0007.17
2022-08-04 18:27:00,,0829.0,4.99,0.00,29.3,27.6,00.0,38.0,31.1,27.6,0001.9,0019.80,0009.23,0007.20
2022-08-04 18:28:00,,0829.0,5.00,0.00,29.3,27.8,00.0,38.0,31.2,26.2,0001.9,0020.08,0009.26,0007.23
2022-08-04 18:29:00,,0829.0,4.99,0.00,29.3,28.0,00.0,38.0,31.2,25.8,0001.7,0019.99,0009.28,0007.26
2022-08-04 18:30:00,,0828.7,5.00,0.00,29.4,28.1,00.0,38.1,31.3,26.9,0001.7,0019.79,0009.28,0007.30
2022-08-04 18:31:00,,0828.5,5.00,0.00,29.4,27.7,00.0,38.0,31.3,24.3,0001.7,0019.56,0009.27,0007.29
2022-08-04 18:32:00,,0828.4,5.01,0.00,29.3,27.2,00.0,38.0,31.1,25.3,0001.8,0019.74,0009.22,0007.27
2022-08-04 18:33:00,,0828.5,5.00,0.00,29.3,27.2,00.0,38.0,31.1,25.6,0001.7,0020.00,0009.28,0007.29
2022-08-04 18:34:00,,0828.5,5.00,0.00,29.3,27.3,00.0,38.0,31.0,26.0,0001.6,0019.92,0009.31,0007.31
2022-08-04 18:35:00,,0828.5,4.99,0.00,29.2,27.5,00.0,38.0,31.0,25.6,0001.3,0019.30,0009.39,0007.31
2022-08-04 18:36:00,,0828.5,5.00,0.00,29.3,27.6,00.0,38.0,31.1,25.4,0000.8,0019.93,0009.45,0007.30
2022-08-04 18:37:00,,0828.4,5.00,0.00,29.3,27.9,00.0,38.0,31.2,25.6,0000.8,0020.31,0009.49,0007.30
2022-08-04 18:38:00,,0828.3,5.01,0.00,29.3,28.0,00.0,38.0,31.3,25.1,0000.8,0020.93,0009.52,0007.29
2022-08-04 18:39:00,,0828.3,5.00,0.00,29.4,28.0,00.0,38.0,31.3,25.4,0000.9,0021.34,0009.47,0007.28
2022-08-04 18:40:00,,0828.3,5.00,0.00,29.3,27.4,00.0,38.0,31.1,26.1,0001.3,0021.70,0009.53,0007.32
2022-08-04 18:41:00,,0828.3,5.01,0.00,29.3,27.1,00.0,38.0,31.1,26.8,0001.3,0021.26,0009.57,0007.37
2022-08-04 18:42:00,,0828.3,4.99,0.00,29.3,27.2,00.0,38.0,31.1,27.1,0001.4,0022.03,0009.63,0007.43
2022-08-04 18:43:00,,0828.3,5.00,0.00,29.2,27.3,00.0,38.0,31.0,26.0,0001.3,0022.01,0009.70,0007.48
2022-08-04 18:44:00,,0828.3,5.01,0.00,29.2,27.5,00.0,38.0,31.0,24.9,0001.4,0022.10,0009.76,0007.51
2022-08-04 18:45:00,,0828.3,5.00,0.00,29.2,27.7,00.0,38.0,31.1,25.7,0001.5,0022.10,0009.78,0007.51
2022-08-04 18:46:00,,0828.3,5.01,0.00,29.3,27.9,00.0,38.0,31.2,26.0,0002.1,0021.46,0009.76,0007.54
2022-08-04 18:47:00,,0828.3,5.00,0.00,29.3,28.1,00.0,38.0,31.3,26.5,0002.7,0021.01,0009.79,0007.59
2022-08-04 18:48:00,,0828.3,4.99,0.00,29.3,27.7,00.0,38.0,31.2,26.9,0003.0,0021.08,0009.84,0007.65
2022-08-04 18:49:00,,0828.3,5.01,0.00,29.3,27.1,00.0,38.0,31.0,27.2,0003.0,0022.35,0009.90,0007.71
2022-08-04 18:50:00,,0828.3,4.99,0.00,29.3,27.1,00.0,38.0,31.1,27.7,0002.8,0022.25,0010.06,0007.78
2022-08-04 18:51:00,,0828.3,5.01,0.00,29.2,27.2,00.0,38.0,31.0,28.3,0002.8,0022.33,0010.22,0007.85
2022-08-04 18:52:00,,0828.2,4.99,0.00,29.2,27.4,00.0,37.9,31.0,28.4,0002.6,0023.72,0010.35,0007.87
2022-08-04 18:53:00,,0828.2,5.01,0.00,29.2,27.6,00.0,38.0,31.1,27.7,0002.4,0023.53,0010.34,0007.85
2022-08-04 18:54:00,,0828.2,5.00,0.00,29.2,27.8,00.0,38.0,31.1,27.0,0002.5,0024.13,0010.25,0007.86
2022-08-04 18:55:00,,0828.2,5.00,0.00,29.3,28.0,00.0,38.0,31.2,27.6,0002.5,0024.44,0010.19,0007.88
2022-08-04 18:56:00,,0828.2,5.00,0.00,29.3,28.1,00.0,38.0,31.3,26.5,0002.8,0024.58,0010.19,0007.91
2022-08-04 18:57:00,,0828.2,5.00,0.00,29.3,27.8,00.0,38.0,31.2,26.4,0002.6,0025.00,0010.16,0007.90
2022-08-04 18:58:00,,0828.2,5.00,0.00,29.3,27.3,00.0,38.0,31.1,26.9,0002.3,0024.92,0010.17,0007.89
2022-08-04 18:59:00,,0828.2,5.01,0.00,29.3,27.2,00.0,38.0,31.1,27.8,0002.3,0025.24,0010.17,0007.90
